Regional Weather Roundup
Issued by NWS

Home | Current Version | Previous Version | Graphics & Text | Print | Product List | Glossary On
Versions: 1 2 3 4 5 6 7 8 9 10 11 12 13 14 15 16 17 18 19 20 21 22 23 24 25 26 27 28 29 30 31 32 33 34 35 36 37 38 39 40 41 42 43 44 45 46 47 48 49 50
000
ASUS43 KLOT 281708
RWRIL

ILLINOIS REGIONAL WEATHER ROUNDUP
NATIONAL WEATHER SERVICE CHICAGO/ROMEOVILLE IL
1200 PM CDT TUE JUL 28 2015

NOTE: "FAIR" INDICATES FEW OR NO CLOUDS BELOW 12,000 FEET WITH NO
SIGNIFICANT WEATHER AND/OR OBSTRUCTIONS TO VISIBILITY.

* THESE STATIONS ARE NOT UNDER NWS QUALITY CONTROL. THEY ALSO MAY NOT
  REPORT WEATHER SUCH AS PRECIPITATION OR FOG.

ILZ001-002-007-009-015-016-024-281800-
NORTHWEST ILLINOIS

CITY           SKY/WX    TMP DP  RH WIND       PRES   REMARKS
MOLINE         PTSUNNY   79  74  84 E9        29.98R HX  82
STERLING*      CLOUDY    82  75  78 W7        29.99R HX  89
SAVANNA*       DRIZZLE   79  71  77 S3        29.99S HX  82
$$

ILZ003-004-008-010-011-017-018-281800-
NORTH CENTRAL ILLINOIS

CITY           SKY/WX    TMP DP  RH WIND       PRES   REMARKS
ROCKFORD       PTSUNNY   85  72  65 S8        29.99F HX  91
FREEPORT*      PTSUNNY   81  72  76 S3        30.01S HX  85
ROCHELLE*      PTSUNNY   83  73  70 S5        29.99F HX  89
DE KALB*       MOSUNNY   82  71  70 S7        30.01S HX  86
PERU*          PTSUNNY   83  71  66 CALM      29.99S HX  88
$$

ILZ005-006-012>014-019>023-281800-
NORTHEAST ILLINOIS

CITY           SKY/WX    TMP DP  RH WIND       PRES   REMARKS
CHICAGO-OHARE  PTSUNNY   85  68  56 S5        29.98F HX  88
CHICAGO-MIDWAY PTSUNNY   88  69  53 S6        29.98F HX  92
AURORA         PTSUNNY   87  71  58 S6        29.99F HX  93
LANSING*       MOSUNNY   86  67  53 SE7       29.99F HX  89
JOLIET*        PTSUNNY   86  74  67 S5        29.99S HX  94
WAUKEGAN       PTSUNNY   80  69  69 E7        30.00S HX  83
DUPAGE AIRPORT PTSUNNY   85  70  60 S8        29.99F HX  89
KANKAKEE*      PTSUNNY   86  75  70 S5        29.99F HX  95
WHEELING       PTSUNNY   86  66  51 S3        30.00F HX  88
MORRIS*        PTSUNNY   84  74  70 S6        29.98S HX  91
ROMEOVILLE*    PTSUNNY   85  69  59 S6        29.99F HX  88
NORTHERLY ISL    N/A     79  69  71 NE6         N/A  HX  81
$$

LMZ740>746-281800-
SOUTHERN LAKE MICHIGAN

STATION/POSITION SKY/WX   TEMP    WIND        PRES    VSBY  WAVE
                          AIR SEA DIR/SP/G                  HT/PER
                          (F)     (DEG/KT/KT) (MB)    (MI)  (FT/S)
HARRISON CRIB              74      90/  6/  7   N/A
BURNHAM HARBOR             78      70/  7       N/A
CALUMET HARBOR             80      50/  7/  9   N/A
BURNS HARBOR               84     170/  5/ 10 1016.6R
MICHIGAN CITY              82     100/  9/ 11   N/A
MICHIGAN CITY 6N           81 76  180/  2/  4   N/A           1
ST. JOSEPH                 79 75  160/  2/  4   N/A           1
$$

ILZ025>027-034>036-040-047-049-050-058-095>099-281800-
WEST-CENTRAL ILLINOIS

CITY           SKY/WX    TMP DP  RH WIND       PRES   REMARKS
QUINCY         SUNNY     88  78  72 SW3       29.96S HX 101
GALESBURG*     PTSUNNY   85  76  74 S7        29.98R HX  95
MACOMB*        SUNNY     85  76  74 S7        29.99S HX  95
JACKSONVILLE*  MOSUNNY   88  77  70 CALM      29.97F HX 100
PITTSFIELD*    SUNNY     88  78  72 CALM      29.98S HX 101
$$

ILZ028>032-037-038-041>044-048-051>054-059>061-281800-
CENTRAL ILLINOIS

CITY           SKY/WX    TMP DP  RH WIND       PRES   REMARKS
PONTIAC        MOSUNNY   86  76  73 SE3       29.99S HX  96
BLOOMINGTON    MOSUNNY   88  76  67 VRB6      30.00S HX  99
DECATUR        MOSUNNY   88  77  69 VRB3      29.98S HX 100
PEORIA         PTSUNNY   89  76  65 S6        29.97S HX 100
LACON*         CLOUDY    85  74  70 CALM      29.97S HX  93
LINCOLN*       PTSUNNY   89  78  68 S3        29.97S HX 102
SPRINGFIELD    PTSUNNY   89  77  67 S3        29.98S HX 101
TAYLORVILLE    MOSUNNY   86  75  70 CALM      29.98F HX  95
$$

ILZ033-039-045-046-055>057-062-063-281800-
EAST-CENTRAL ILLINOIS

CITY           SKY/WX    TMP DP  RH WIND       PRES   REMARKS
CHAMPAIGN      MOSUNNY   87  75  67 VRB3      29.99F HX  96
DANVILLE*      PTSUNNY   85  78  78 SE3       29.97S HAZE    HX  97
MATTOON        MOSUNNY   86  74  67 VRB7      29.98F HX  94
PARIS*         PTSUNNY   89  77  68 CALM      30.00S HX 101
$$

ILZ079-100>102-281800-
SOUTHWEST ILLINOIS

CITY           SKY/WX    TMP DP  RH WIND       PRES   REMARKS
BELLEVILLE     PTSUNNY   89  81  76 W2        29.96S HX 108
CAHOKIA*       MOSUNNY   92  76  59 CALM      29.96F HX 104
SPARTA*        SUNNY     88  79  74 SW5       29.99S HX 102
$$

ILZ064>066-069>071-074>076-080>082-084>086-088>090-092>094-281800-
SOUTH-CENTRAL ILLINOIS

CITY           SKY/WX    TMP DP  RH WIND       PRES   REMARKS
CARBONDALE     SUNNY     89  78  70 VRB6      29.99R HX 103
CAIRO*         SUNNY     90  80  72 SW5       29.99S HX 107
EFFINGHAM*     MOSUNNY   87  71  57 CALM      30.00S HX  93
MARION         SUNNY     90  79  70 SW7       30.00R HX 105
MT. VERNON     SUNNY     90  75  62 S5        29.99S HX 100
CENTRALIA*     SUNNY     88  74  64 CALM      29.99S HX  97
SALEM*         SUNNY     89  74  62 CALM      29.99S HX  98
METROPOLIS*    SUNNY     91  79  68 SW7       30.00R HX 107
$$

ILZ067-068-072-073-078-083-087-091-281800-
SOUTHEAST ILLINOIS

CITY           SKY/WX    TMP DP  RH WIND       PRES   REMARKS
LAWRENCEVILLE  MOSUNNY   87  76  69 VRB3      29.99S HX  97
FLORA*         SUNNY     88  75  65 CALM      29.99S HX  97
FAIRFIELD*     PTSUNNY   88  78  73 SW3       29.98R HX 101
HARRISBURG*    SUNNY     91  79  68 W7        30.00R HX 106
ROBINSON*      MOSUNNY   87  77  71 CALM      30.00S HX  99
CARMI*         MOSUNNY   88  73  62 CALM      29.98S HX  95
$$

ABBREVIATIONS USED IN REMARKS
   TC - TEMPERATURE IN CELSIUS
  WCI - WIND CHILL INDEX
   HX - HEAT INDEX
  VSB - VISIBILITY
$$




USA.gov is the U.S. government's official web portal to all federal, state and local government web resources and services.